AKDT,Max TemperatureF,Mean TemperatureF,Min TemperatureF,Max Dew PointF,MeanDew PointF,Min DewpointF,Max Humidity, Mean Humidity, Min Humidity, Max Sea Level PressureIn, Mean Sea Level PressureIn, Min Sea Level PressureIn, Max VisibilityMiles, Mean VisibilityMiles, Min VisibilityMiles, Max Wind SpeedMPH, Mean Wind SpeedMPH, Max Gust SpeedMPH,PrecipitationIn, CloudCover, Events, WindDirDegrees
2013-5-1,43,35,28,31,28,26,100,75,53,29.79,29.64,29.56,10,10,10,21,10,23,0.00,6,,4
2013-5-2,39,34,30,37,33,27,100,94,78,29.86,29.80,29.67,10,8,3,7,2,,0.36,8,Rain-Snow,276
2013-5-3,39,36,33,37,33,27,100,93,67,29.91,29.85,29.80,10,9,4,14,5,,0.34,8,Rain-Snow,216
2013-5-4,39,36,32,34,31,26,100,87,67,29.94,29.82,29.77,10,8,1,15,3,,0.04,8,Snow,269
2013-5-5,46,34,24,30,24,18,96,65,34,30.16,30.10,29.98,10,10,10,10,5,,0.00,1,,325
2013-5-6,41,37,33,31,28,24,89,73,55,30.27,30.21,30.16,10,10,10,17,7,22,0.00,4,,202
2013-5-7,45,38,30,33,29,21,92,73,40,30.30,30.28,30.27,10,10,10,10,4,,0.00,6,,254
2013-5-8,51,41,32,33,28,23,96,63,35,30.29,30.27,30.24,10,10,10,18,7,21,0.00,2,,357
2013-5-9,50,41,34,33,28,25,73,59,41,30.30,30.28,30.25,10,10,10,12,7,,0.00,5,,19
2013-5-10,57,42,30,32,30,29,100,60,37,30.25,30.09,29.94,10,10,10,15,5,,0.00,1,,15
2013-5-11,51,44,37,41,38,33,100,81,56,29.94,29.76,29.59,10,10,4,10,5,,0.04,8,Rain,317
2013-5-12,55,48,41,39,35,32,82,64,43,29.58,29.53,29.49,10,10,10,14,7,,0.01,8,Rain,8
2013-5-13,48,42,35,41,34,22,100,83,41,29.49,29.45,29.43,10,7,0,12,2,,0.01,7,Fog-Rain,343
2013-5-14,46,40,33,28,19,14,76,46,30,29.65,29.57,29.49,10,10,10,12,7,,0.00,3,,316
2013-5-15,46,38,30,32,26,18,82,62,35,29.76,29.73,29.67,10,10,10,9,5,,0.00,3,,222
2013-5-16,37,36,34,37,35,30,100,94,79,29.72,29.57,29.44,10,9,6,18,11,,0.47,8,Rain,22
2013-5-17,44,38,32,37,34,32,100,94,71,29.54,29.44,29.40,10,8,2,10,3,,0.35,8,Rain-Snow,53
2013-5-18,41,36,30,32,22,14,100,67,33,30.19,29.81,29.53,10,10,5,13,6,21,0.01,7,Snow,15
2013-5-19,45,35,25,25,18,12,72,50,30,30.62,30.47,30.22,10,10,10,12,5,,0.00,0,,341
2013-5-20,48,36,26,34,23,15,93,60,29,30.66,30.63,30.58,10,10,10,12,3,,0.00,1,,252
2013-5-21,48,40,33,35,32,31,92,72,56,30.57,30.44,30.28,10,10,10,9,2,,0.00,7,,310
2013-5-22,51,44,39,41,37,34,100,80,61,30.27,30.18,30.14,10,10,10,9,2,,0.01,8,Rain,263
2013-5-23,57,48,41,43,41,36,100,85,55,30.17,30.15,30.12,10,10,6,12,2,,0.00,7,,321
2013-5-24,62,50,39,40,38,35,100,68,38,30.12,30.05,29.99,10,10,10,12,7,,0.00,2,,228
2013-5-25,59,47,37,41,38,33,97,79,45,30.01,29.97,29.92,10,8,1,22,8,22,0.00,3,,209
2013-5-26,53,43,34,45,40,34,100,85,63,29.96,29.92,29.89,10,10,8,9,5,,0.08,5,Rain,276
2013-5-27,69,54,42,46,42,40,100,77,38,29.91,29.85,29.79,10,10,10,17,8,22,0.01,2,Rain,290
2013-5-28,73,55,37,42,40,36,97,61,31,29.80,29.72,29.65,10,10,10,13,6,,0.00,0,,242
2013-5-29,66,54,44,43,41,38,96,67,37,29.77,29.70,29.67,10,10,10,16,5,,0.00,0,,212
2013-5-30,54,48,42,43,42,41,100,86,66,30.03,29.94,29.78,10,7,1,20,13,24,0.00,2,,205
2013-5-31,54,47,42,45,43,42,100,92,74,30.18,30.11,30.04,10,8,0,21,16,26,0.00,6,Fog,203